Figari, France

7:51 PM CEST on September 28, 2016 (GMT +0200)
Figari-Sud Corse

Weather History for LFKF - June, 2013

Change the Weather History Date:

Saturday, June 29, 2013

  Actual Average Record
Temperature  
Mean Temperature 61 °F -  
Max Temperature 78 °F 85 °F 98 °F (2005)
Min Temperature 44 °F 69 °F 44 °F (2013)
Degree Days  
Heating Degree Days 4    
Growing Degree Days 11 (Base 50)    
Moisture  
Dew Point 52 °F    
Average Humidity 66    
Maximum Humidity 100    
Minimum Humidity 36    
Precipitation  
Precipitation 0.00 in - - ()
Sea Level Pressure  
Sea Level Pressure 30.07 in    
Wind  
Wind Speed 5 mph ()    
Max Wind Speed 17 mph    
Max Gust Speed -    
Visibility 6.2 miles    
Events      
Averages and records for this station are not official NWS values.
T = Trace of Precipitation, MM = Missing Value Source: Averaged Metar Reports

Daily Weather History Graph

Daily Weather History Graph

Search for Another Location

Airport or City:

Trip Planner

Search our weather history database for the weather conditions in past years. The results will help you decide how hot, cold, wet, or windy it might be!

Date:

Astronomy

Jun. 29, 2013 Rise Set
Actual Time 5:52 AM CEST 9:01 PM CEST
Civil Twilight 5:18 AM CEST 9:35 PM CEST
Nautical Twilight 4:35 AM CEST 10:18 PM CEST
Astronomical Twilight 3:43 AM CEST 11:10 PM CEST
Moon 12:16 AM CEST (6/29) 12:52 PM CEST (6/29)
Length of Visible Light 16h 16m
Length of Day
15h 08m
Waning Gibbous, 58% of the Moon is Illuminated
Jun 29
Waning Gibbous
Jun 30
Last Quarter
Jul 8
New
Jul 16
First Quarter
Jul 22
Full

Hourly Weather History & Observations

Time (CEST) Temp. Dew Point Humidity Pressure Visibility Wind Dir Wind Speed Gust Speed Precip Events Conditions
12:00 AM 57.2 °F 51.8 °F 82% 30.06 in 6.2 mi Variable 2.3 mph - N/A   Unknown
12:30 AM 55.4 °F 50.0 °F 82% 30.06 in 6.2 mi Calm Calm - N/A   Unknown
1:00 AM 51.8 °F 48.2 °F 88% 30.06 in 6.2 mi NNE 3.5 mph - N/A   Unknown
1:30 AM 51.8 °F 48.2 °F 88% 30.06 in 6.2 mi Variable 3.5 mph - N/A   Unknown
2:00 AM 50.0 °F 48.2 °F 94% 30.06 in 6.2 mi Variable 2.3 mph - N/A   Unknown
2:30 AM 50.0 °F 48.2 °F 94% 30.06 in 6.2 mi Variable 3.5 mph - N/A   Unknown
3:00 AM 50.0 °F 48.2 °F 94% 30.06 in 6.2 mi North 4.6 mph - N/A   Unknown
3:30 AM 50.0 °F 46.4 °F 87% 30.06 in 6.2 mi NNE 3.5 mph - N/A   Unknown
4:00 AM 48.2 °F 46.4 °F 93% 30.06 in 6.2 mi North 3.5 mph - N/A   Unknown
4:30 AM 46.4 °F 42.8 °F 87% 30.06 in 6.2 mi Calm Calm - N/A   Unknown
5:00 AM 46.4 °F 44.6 °F 93% 30.06 in 6.2 mi NNE 2.3 mph - N/A   Unknown
5:30 AM 44.6 °F 41.0 °F 87% 30.06 in 6.2 mi Calm Calm - N/A   Unknown
6:00 AM 44.6 °F 41.0 °F 87% 30.06 in 6.2 mi Calm Calm - N/A   Unknown
6:30 AM 46.4 °F 44.6 °F 93% 30.06 in 6.2 mi North 2.3 mph - N/A   Unknown
7:00 AM 51.8 °F 51.8 °F 100% 30.06 in 6.2 mi Calm Calm - N/A   Unknown
7:30 AM 57.2 °F 53.6 °F 88% 30.09 in 6.2 mi Calm Calm - N/A   Unknown
8:00 AM 62.6 °F 57.2 °F 82% 30.09 in 6.2 mi Calm Calm - N/A   Unknown
8:30 AM 66.2 °F 57.2 °F 73% 30.09 in 6.2 mi WSW 4.6 mph - N/A   Unknown
9:00 AM 68.0 °F 57.2 °F 68% 30.09 in 6.2 mi SSW 5.8 mph - N/A   Unknown
9:30 AM 71.6 °F 57.2 °F 60% 30.09 in 6.2 mi South 5.8 mph - N/A   Unknown
10:00 AM 71.6 °F 57.2 °F 60% 30.09 in 6.2 mi SSW 8.1 mph - N/A   Unknown
10:30 AM 71.6 °F 59.0 °F 64% 30.09 in 6.2 mi SW 6.9 mph - N/A   Unknown
11:00 AM 73.4 °F 59.0 °F 61% 30.09 in 6.2 mi SSW 8.1 mph - N/A   Unknown
11:30 AM 73.4 °F 55.4 °F 53% 30.09 in 6.2 mi SSW 6.9 mph - N/A   Unknown
12:00 PM 75.2 °F 57.2 °F 53% 30.09 in 6.2 mi Variable 5.8 mph - N/A   Mostly Cloudy
12:30 PM 75.2 °F 55.4 °F 50% 30.09 in 6.2 mi SSW 5.8 mph - N/A   Mostly Cloudy
1:00 PM 77.0 °F 57.2 °F 50% 30.09 in 6.2 mi SW 8.1 mph - N/A   Mostly Cloudy
1:30 PM 77.0 °F 57.2 °F 50% 30.09 in 6.2 mi SW 10.4 mph - N/A   Mostly Cloudy
2:00 PM 75.2 °F 53.6 °F 47% 30.09 in 6.2 mi SW 9.2 mph - N/A   Mostly Cloudy
2:30 PM 77.0 °F 53.6 °F 44% 30.06 in 6.2 mi SSW 9.2 mph - N/A   Scattered Clouds
3:00 PM 78.8 °F 53.6 °F 42% 30.06 in 6.2 mi SW 9.2 mph - N/A   Mostly Cloudy
3:30 PM 77.0 °F 55.4 °F 47% 30.06 in 6.2 mi SW 13.8 mph - N/A   Unknown
4:00 PM 77.0 °F 57.2 °F 50% 30.06 in 6.2 mi SW 17.3 mph - N/A   Unknown
4:30 PM 77.0 °F 51.8 °F 41% 30.06 in 6.2 mi SW 13.8 mph - N/A   Unknown
5:00 PM 78.8 °F 53.6 °F 42% 30.04 in 6.2 mi West 13.8 mph - N/A   Unknown
5:30 PM 77.0 °F 50.0 °F 39% 30.04 in 6.2 mi WSW 15.0 mph - N/A   Unknown
6:00 PM 78.8 °F 50.0 °F 36% 30.04 in 6.2 mi West 15.0 mph - N/A   Unknown
6:30 PM 75.2 °F 48.2 °F 38% 30.04 in 6.2 mi West 8.1 mph - N/A   Unknown
7:00 PM 75.2 °F 48.2 °F 38% 30.04 in 6.2 mi West 10.4 mph - N/A   Unknown
7:30 PM 75.2 °F 46.4 °F 36% 30.04 in 6.2 mi West 11.5 mph - N/A   Unknown
8:00 PM 73.4 °F 48.2 °F 41% 30.06 in 6.2 mi WSW 10.4 mph - N/A   Unknown
8:30 PM 69.8 °F 46.4 °F 43% 30.06 in 6.2 mi WSW 4.6 mph - N/A   Unknown
9:00 PM 68.0 °F 51.8 °F 56% 30.06 in 6.2 mi WSW 8.1 mph - N/A   Unknown
9:30 PM 66.2 °F 51.8 °F 60% 30.06 in 6.2 mi SW 9.2 mph - N/A   Unknown
10:00 PM 64.4 °F 50.0 °F 59% 30.06 in 6.2 mi South 5.8 mph - N/A   Unknown
10:30 PM 66.2 °F 57.2 °F 73% 30.09 in 6.2 mi SW 8.1 mph - N/A   Unknown
11:00 PM 64.4 °F 57.2 °F 77% 30.06 in 6.2 mi WSW 8.1 mph - N/A   Unknown
11:30 PM 62.6 °F 57.2 °F 82% 30.06 in 6.2 mi WSW 3.5 mph - N/A   Unknown